SCP
0 0 0 0 0 0 0 0 0 0 0 0 0 -0 -0 -0 -0 -0 -0 -0 -0 0 0 0 0 0 0 0 0 0 0 0
0 0 0 0 0 0 0 0 0 0 0 0 -0 -0 -0 -0 -0 -0 -0 -0 0 0 0 0 0 0 0 0 0 0 0 0
0 0 0 0 0 0 0 0 0 0 0 0 0 -0 -0 -0 -0 -0 0 0 0 0 0 0 0 0 0 0 0 0 0 0
0 0 0 0 1 0 0 0 0 0 0 0 0 -0 -0 -0 -0 0 0 0 0 0 0 0 0 0 0 0 0 0 0 0
0 0 0 0 0 0 0 0 0 0 0 0 0 -0 0 0 0 0 0 0 0 0 0 0 0 0 0 0 -0 -0 -0 0
0 0 0 0 0 0 0 0 0 0 0 0 0 0 0 0 0 0 0 0 0 0 0 0 0 0 0 0 0 0 0 0
0 0 0 0 0 0 0 0 0 0 0 0 0 0 -0 -0 0 0 0 0 0 0 0 -0 -0 0 0 0 0 0 0 1
0 0 0 0 0 0 0 0 0 0 0 -0 -0 0 -0 -0 0 0 0 0 -0 0 0 0 0 0 0 1 1 1 0 0
0 0 0 0 0 0 0 0 0 0 0 0 0 0 0 0 0 0 0 0 0 0 0 0 1 3 2 1 0 0 0 0
1 0 0 0 0 1 0 0 0 0 0 0 0 0 0 0 0 0 0 0 0 0 0 2 4 3 2 1 0 0 0 0
1 1 1 1 0 1 0 0 0 0 0 0 0 0 0 0 0 0 0 0 0 1 2 2 2 1 1 0 0 0 0 0
3 2 3 2 1 3 2 1 1 0 0 0 0 0 0 0 1 0 0 0 0 3 3 2 1 0 0 0 0 0 0 0
4 5 3 2 2 3 3 2 1 1 1 1 0 0 0 0 1 0 0 0 2 3 2 1 0 0 0 0 0 0 0 0
4 5 3 2 1 2 3 2 1 2 1 1 1 1 0 0 0 0 0 2 2 1 0 0 0 0 0 0 0 0 0 0
5 5 4 3 1 1 1 1 1 2 1 1 0 0 0 0 0 0 1 2 2 0 0 0 0 0 0 0 0 0 0 0
5 4 4 4 1 1 1 1 1 1 1 0 0 1 0 0 1 1 1 1 0 0 0 0 0 0 0 0 0 0 0 0
3 4 4 2 1 1 1 0 0 1 1 0 1 1 1 2 1 1 1 0 0 0 0 0 0 0 0 0 0 0 0 0
2 2 3 2 2 1 1 0 1 1 2 3 2 2 1 1 1 1 1 0 0 0 0 0 0 0 0 0 0 0 0 0
3 2 2 2 1 2 1 1 1 0 0 1 1 1 1 0 1 0 1 0 0 0 0 0 0 0 0 0 0 0 0 0
Wind_Speed_500mb
57 57 55 49 51 54 52 47 41 36 31 30 31 31 31 28 25 21 17 13 10 7 5 4 5 6 9 12 16 19 22 23
50 52 56 51 48 52 53 48 42 35 31 29 30 30 29 26 22 18 14 12 8 5 3 3 5 8 11 15 20 23 23 25
52 53 57 51 46 49 48 46 42 35 30 29 29 28 26 23 19 16 13 9 6 3 1 4 7 10 14 17 21 25 27 28
46 54 59 55 49 45 45 44 42 36 30 30 30 28 24 21 18 14 10 7 4 1 4 7 10 13 15 17 27 34 24 18
40 52 60 56 53 48 48 44 43 39 33 31 29 27 24 20 17 13 10 7 3 3 6 10 12 13 14 12 21 29 25 24
43 44 50 52 50 48 49 49 45 40 36 34 31 27 23 18 14 11 10 4 4 5 8 10 12 12 11 18 18 24 28 28
50 44 43 43 46 41 46 50 47 43 40 35 30 26 20 12 7 6 3 5 8 8 5 15 16 11 13 21 24 19 27 29
58 47 47 48 45 43 41 51 48 44 40 34 31 29 21 21 21 24 11 8 7 7 5 15 13 5 8 9 16 8 11 17
64 49 52 57 48 45 44 49 43 41 34 33 29 33 28 32 25 16 7 17 10 5 1 13 12 14 13 16 17 14 12 15
72 57 57 59 52 53 45 44 37 34 34 29 27 33 28 34 23 25 21 26 13 13 13 19 23 24 25 23 19 17 15 10
72 63 63 63 60 45 43 43 40 38 37 33 34 35 36 24 27 27 31 22 9 11 20 21 18 26 26 19 9 18 13 13
68 78 67 66 68 53 43 46 42 39 37 34 34 30 28 35 32 32 24 8 12 26 23 23 25 19 9 14 11 11 14 15
70 77 73 68 69 54 55 53 48 38 34 35 30 33 32 39 35 30 24 13 26 28 25 24 20 14 19 14 1 8 20 14
70 75 69 65 56 64 62 53 52 36 38 30 31 34 35 32 32 28 20 25 30 32 30 21 19 20 22 8 3 19 15 11
66 72 72 65 59 66 62 49 47 35 38 31 29 29 27 23 23 26 29 26 32 37 34 28 29 22 21 21 23 16 27 28
70 68 78 74 58 57 57 52 44 40 32 31 28 28 29 25 23 32 34 32 34 38 38 26 22 23 26 30 37 38 40 21
80 73 77 78 67 64 61 57 42 43 38 38 33 27 29 26 32 34 38 35 38 39 29 21 18 20 23 20 25 28 21 18
65 79 81 71 72 73 70 62 62 54 41 45 35 36 35 29 29 31 35 38 35 22 27 24 21 11 2 16 23 24 12 11
67 62 70 78 79 76 70 58 51 51 45 45 37 45 37 32 28 34 36 44 30 28 29 21 18 9 5 13 20 28 27 25
Wind_Direction_500mb
154 163 157 157 160 160 165 167 167 164 158 150 147 145 143 144 144 145 144 141 136 127 109 87 48 20 12 3 0 0 1 5
149 165 157 156 161 162 165 168 170 171 165 159 155 154 152 154 154 151 153 150 140 131 124 45 3 355 356 355 358 360 8 11
162 163 158 156 161 165 167 171 173 177 173 169 165 162 164 162 162 163 164 155 150 171 5 343 340 343 348 357 3 9 14 30
172 168 161 158 161 169 173 178 177 181 185 179 173 170 173 170 171 173 168 172 184 276 336 325 332 340 349 14 25 24 27 31
157 167 165 165 164 170 175 185 182 185 192 186 180 177 180 176 180 179 186 200 223 302 321 328 336 351 15 40 26 26 18 10
159 167 168 169 169 172 178 184 185 188 193 187 185 182 182 182 188 194 214 202 263 304 333 354 2 19 51 15 352 13 7 1
160 164 172 169 169 170 178 182 185 186 189 187 189 183 177 159 194 252 207 279 309 339 339 21 35 31 30 9 356 5 0 5
163 166 176 177 164 168 180 179 183 184 188 189 191 179 149 161 212 207 251 335 0 30 340 350 3 335 352 308 312 324 329 307
161 170 177 183 167 174 191 182 183 186 188 189 196 178 165 199 223 183 254 281 324 340 248 294 309 184 273 258 271 287 276 289
161 171 177 184 173 182 193 174 180 186 185 184 201 203 189 207 216 205 201 207 240 230 263 250 236 247 269 279 286 284 303 306
166 167 178 184 173 188 186 170 183 184 187 192 211 226 191 201 216 239 223 232 212 239 260 236 260 281 277 283 289 299 330 332
173 169 181 185 179 181 176 172 185 179 195 197 212 225 217 204 219 230 246 250 242 246 240 249 270 279 286 276 291 2 314 304
173 175 178 185 183 182 183 179 183 190 192 200 207 222 236 223 219 234 224 230 253 232 246 264 249 230 243 229 262 336 285 316
181 179 179 182 188 186 189 189 188 183 194 207 204 228 246 226 215 244 211 250 234 238 260 244 258 233 255 273 89 267 325 301
173 187 186 181 197 191 190 191 194 189 202 200 214 226 245 232 213 239 225 234 239 254 271 262 260 272 286 295 290 284 341 338
172 183 190 185 192 189 192 185 192 185 211 196 215 219 232 242 208 234 243 243 253 268 272 270 274 288 297 301 307 313 321 305
178 181 191 196 189 195 193 187 184 185 198 197 207 209 232 238 216 231 249 256 264 268 263 270 280 296 311 337 346 342 342 345
184 193 195 190 189 192 194 186 189 190 194 198 199 209 211 231 229 244 256 257 257 260 266 264 276 272 340 8 342 354 338 304
182 193 195 194 196 199 202 197 191 177 183 196 200 212 215 226 247 241 242 259 246 212 248 264 256 234 320 345 345 346 336 333
Wind_Speed_850mb
57 57 55 49 51 54 52 47 41 36 31 30 31 31 31 28 25 21 17 13 10 7 5 4 5 6 9 12 16 19 22 23
50 52 56 51 48 52 53 48 42 35 31 29 30 30 29 26 22 18 14 12 8 5 3 3 5 8 11 15 20 23 23 25
52 53 57 51 46 49 48 46 42 35 30 29 29 28 26 23 19 16 13 9 6 3 1 4 7 10 14 17 21 25 27 28
46 54 59 55 49 45 45 44 42 36 30 30 30 28 24 21 18 14 10 7 4 1 4 7 10 13 15 17 27 34 24 18
40 52 60 56 53 48 48 44 43 39 33 31 29 27 24 20 17 13 10 7 3 3 6 10 12 13 14 12 21 29 25 24
43 44 50 52 50 48 49 49 45 40 36 34 31 27 23 18 14 11 10 4 4 5 8 10 12 12 11 18 18 24 28 28
50 44 43 43 46 41 46 50 47 43 40 35 30 26 20 12 7 6 3 5 8 8 5 15 16 11 13 21 24 19 27 29
58 47 47 48 45 43 41 51 48 44 40 34 31 29 21 21 21 24 11 8 7 7 5 15 13 5 8 9 16 8 11 17
64 49 52 57 48 45 44 49 43 41 34 33 29 33 28 32 25 16 7 17 10 5 1 13 12 14 13 16 17 14 12 15
72 57 57 59 52 53 45 44 37 34 34 29 27 33 28 34 23 25 21 26 13 13 13 19 23 24 25 23 19 17 15 10
72 63 63 63 60 45 43 43 40 38 37 33 34 35 36 24 27 27 31 22 9 11 20 21 18 26 26 19 9 18 13 13
68 78 67 66 68 53 43 46 42 39 37 34 34 30 28 35 32 32 24 8 12 26 23 23 25 19 9 14 11 11 14 15
70 77 73 68 69 54 55 53 48 38 34 35 30 33 32 39 35 30 24 13 26 28 25 24 20 14 19 14 1 8 20 14
70 75 69 65 56 64 62 53 52 36 38 30 31 34 35 32 32 28 20 25 30 32 30 21 19 20 22 8 3 19 15 11
66 72 72 65 59 66 62 49 47 35 38 31 29 29 27 23 23 26 29 26 32 37 34 28 29 22 21 21 23 16 27 28
70 68 78 74 58 57 57 52 44 40 32 31 28 28 29 25 23 32 34 32 34 38 38 26 22 23 26 30 37 38 40 21
80 73 77 78 67 64 61 57 42 43 38 38 33 27 29 26 32 34 38 35 38 39 29 21 18 20 23 20 25 28 21 18
65 79 81 71 72 73 70 62 62 54 41 45 35 36 35 29 29 31 35 38 35 22 27 24 21 11 2 16 23 24 12 11
67 62 70 78 79 76 70 58 51 51 45 45 37 45 37 32 28 34 36 44 30 28 29 21 18 9 5 13 20 28 27 25
Wind_Direction_850mb
154 163 157 157 160 160 165 167 167 164 158 150 147 145 143 144 144 145 144 141 136 127 109 87 48 20 12 3 0 0 1 5
149 165 157 156 161 162 165 168 170 171 165 159 155 154 152 154 154 151 153 150 140 131 124 45 3 355 356 355 358 360 8 11
162 163 158 156 161 165 167 171 173 177 173 169 165 162 164 162 162 163 164 155 150 171 5 343 340 343 348 357 3 9 14 30
172 168 161 158 161 169 173 178 177 181 185 179 173 170 173 170 171 173 168 172 184 276 336 325 332 340 349 14 25 24 27 31
157 167 165 165 164 170 175 185 182 185 192 186 180 177 180 176 180 179 186 200 223 302 321 328 336 351 15 40 26 26 18 10
159 167 168 169 169 172 178 184 185 188 193 187 185 182 182 182 188 194 214 202 263 304 333 354 2 19 51 15 352 13 7 1
160 164 172 169 169 170 178 182 185 186 189 187 189 183 177 159 194 252 207 279 309 339 339 21 35 31 30 9 356 5 0 5
163 166 176 177 164 168 180 179 183 184 188 189 191 179 149 161 212 207 251 335 0 30 340 350 3 335 352 308 312 324 329 307
161 170 177 183 167 174 191 182 183 186 188 189 196 178 165 199 223 183 254 281 324 340 248 294 309 184 273 258 271 287 276 289
161 171 177 184 173 182 193 174 180 186 185 184 201 203 189 207 216 205 201 207 240 230 263 250 236 247 269 279 286 284 303 306
166 167 178 184 173 188 186 170 183 184 187 192 211 226 191 201 216 239 223 232 212 239 260 236 260 281 277 283 289 299 330 332
173 169 181 185 179 181 176 172 185 179 195 197 212 225 217 204 219 230 246 250 242 246 240 249 270 279 286 276 291 2 314 304
173 175 178 185 183 182 183 179 183 190 192 200 207 222 236 223 219 234 224 230 253 232 246 264 249 230 243 229 262 336 285 316
181 179 179 182 188 186 189 189 188 183 194 207 204 228 246 226 215 244 211 250 234 238 260 244 258 233 255 273 89 267 325 301
173 187 186 181 197 191 190 191 194 189 202 200 214 226 245 232 213 239 225 234 239 254 271 262 260 272 286 295 290 284 341 338
172 183 190 185 192 189 192 185 192 185 211 196 215 219 232 242 208 234 243 243 253 268 272 270 274 288 297 301 307 313 321 305
178 181 191 196 189 195 193 187 184 185 198 197 207 209 232 238 216 231 249 256 264 268 263 270 280 296 311 337 346 342 342 345
184 193 195 190 189 192 194 186 189 190 194 198 199 209 211 231 229 244 256 257 257 260 266 264 276 272 340 8 342 354 338 304
182 193 195 194 196 199 202 197 191 177 183 196 200 212 215 226 247 241 242 259 246 212 248 264 256 234 320 345 345 346 336 333